1st Responders/1st Detectors/Storm Spotters Weather Summary for Carroll County, KY

Forecast Maps


Reg. NEXRAD Animation


National Fire Danger: Day 1 & 2 Map

Current NWS Watch/Warnings

SPC Convective Day 1 Outlook


Day 2 Outlook

(Click images to enlarge|Page will refresh every 5 minutes)
UK Ag. Weather Center Desktop Severe Weather Service[HERE]
Carroll County, KY Hazardous Weather Outlook Webcast
(9 AM to 9 PM Mon-Fri)
[Fast]
[Dial-up]


UKAWC 1st Detectors/1st Responders Precision Weather Forecast For CARROLL County, Kentucky
(based on the NWS County Digital Forecast)

ISSUED AT 08:00 UTC ON THURSDAY MAY 24 2018
DAY THURSDAY
EDT 3HR 5A 6A 7A 8A 9A 10A 11A NOON 1P 2P 3P 4P 5P 6P 7P
MAX/MIN -- -- -- 58° -- -- -- -- -- -- -- -- -- -- 85°
TEMP 59° 58° 58° 61° 65° 70° 74° 77° 79° 81° 83° 83° 83° 83° 81°
SKY COVER 9% 9% 8% 8% 7% 6% 6% 5% 3% 3% 2% 2% 2% 1% 1%
Clouds
DEW PT 56° 56° 56° 56° 58° 58° 59° 58° 58° 58° 58° 58° 58° 58° 58°
RH 89% 92% 89% 83% 75% 68% 61% 51% 49% 44% 43% 42% 41% 43% 45%
POP 12HR -- -- -- 0% -- -- -- -- -- -- -- -- -- -- --
RAIN/SNOW (liq.equ) -- -- -- 0.00in -- -- -- -- -- 0.00in -- -- -- -- --
SNOWFALL -- -- -- 0in -- -- -- -- -- 0in -- -- -- -- --
WIND SPEED(MPH) 5 5 2 5 5 5 6 6 7 7 7 6 6 6 5
WIND Gust(MPH) 5 5 2 5 5 5 6 6 7 7 7 6 6 6 5
WIND DIR NE NE NE NE NE NE NE NE E E E E E E E
DEW Lgt Dew Lgt Dew Mod Dew Lgt Dew -- -- -- -- -- -- -- -- -- -- --
HeatIndex 59 58 58 61 65 70 74 77 80 81 82 82 83 83 82
Rain Showers -- -- -- -- -- -- -- -- -- -- -- -- -- -- --
Thunder Storm -- -- -- -- -- -- -- -- -- -- -- -- -- -- --
WIND CHILL -- -- -- -- -- -- -- -- -- -- -- -- -- -- --
SPRAY COND
DRY COND
LIVESTOCK HEATSTRESS 58.99 58.04 58.05 60.79 64.15 68.03 70.74 72.10 73.33 74.16 75.41 75.28 75.15 75.41 74.28



DAY FRIDAY SATURDAY SUNDAY MONDAY TUESDAY WEDNESDAY
EDT 6HR 8P 9P 10P 11P MIDN 1A 2A 3A 4A 5A 6A 7A 8A 9A 10A 11A NOON 1P 2P 3P 4P 5P 8P 11P 2A 5A 8A 11A 2P 5P 8P 2A 8A 2P 8P 2A 8A 2P 8P 2A 8A 2P 8P 2A 8A 2P 8P
MAX/MIN -- -- -- -- -- -- -- -- -- -- -- -- 59° -- -- -- -- -- -- -- -- 85° -- -- -- -- 65° -- -- 85° -- -- 67° 85° -- -- 67° 86° -- -- 67° 86° -- -- 67° 85° --
TEMP 79° 74° 72° 70° 67° 65° 65° 63° 63° 61° 61° 61° 65° 67° 72° 77° 81° 83° 85° 85° 85° 85° 81° 74° 70° 67° 68° 79° 85° 85° 81° 70° 70° 83° 79° 70° 70° 85° 81° 70° 70° 83° 79° 70° 70° 83° 79°
SKY COVER 1% 1% 3% 6% 8% 10% 11% 11% 13% 15% 16% 18% 19% 19% 20% 21% 23% 24% 24% 25% 26% 27% 31% 35% 46% 48% 66% 63% 70% 71% 66% 59% 68% 74% 76% 69% 74% 74% 69% 63% 66% 69% 71% 60% 68% 70% 67%
Clouds
DEW PT 59° 59° 59° 59° 58° 58° 58° 58° 58° 58° 58° 59° 61° 63° 65° 65° 65° 65° 65° 65° 63° 65° 65° 65° 65° 63° 67° 68° 68° 67° 70° 67° 67° 70° 70° 67° 67° 68° 68° 67° 65° 70° 70° 65° 67° 70° 70°
RH 51% 59% 65% 70% 72% 77% 78% 80% 86% 89% 93% 93% 90% 87% 76% 66% 58% 52% 51% 50% 48% 49% 57% 73% 83% 90% 93% 71% 59% 53% 66% 87% 90% 64% 74% 93% 90% 58% 66% 90% 87% 63% 73% 87% 90% 67% 76%
POP 12HR 0% -- -- -- -- -- -- -- -- -- -- -- 7% -- -- -- -- -- -- -- -- -- 10% -- -- -- 19% -- -- -- 45% -- 31% -- 41% -- 23% -- 18% -- 8% -- 43% -- 38% -- 68%
RAIN/SNOW (liq.equ) 0.00in -- -- -- -- -- 0.00in -- -- -- -- -- 0.00in -- -- -- -- -- 0.00in -- -- -- 0.00in -- 0.00in -- 0.01in -- 0.13in -- 0.07in -- -- -- -- -- -- -- -- -- -- -- -- -- -- -- --
SNOWFALL 0in -- -- -- -- -- 0in -- -- -- -- -- 0in -- -- -- -- -- 0in -- -- -- 0in -- 0in -- 0in -- 0in -- 0in -- -- -- -- -- -- -- -- -- -- -- -- -- -- -- --
WIND SPEED(MPH) 5 5 5 2 2 2 2 2 2 2 2 2 2 2 2 5 5 5 6 6 6 7 6 2 2 5 5 6 6 6 2 1 2 2 2 0 0 2 1 0 1 5 5 5 5 6 6
WIND DIR E E E E E NE NE E E E E SE SE SE SE S S S SW SW S S S S S S SW SW SW SW SW S S S SE SE SE E E E E E E E E E E
HeatIndex 79 74 72 70 67 65 65 63 63 61 61 61 65 67 72 77 84 85 86 87 87 87 82 74 70 67 68 79 88 88 85 70 70 88 79 70 70 88 84 70 70 88 79 70 70 87 79
Rain Showers -- -- -- -- -- -- -- -- -- -- -- -- -- -- -- -- -- -- -- -- -- -- -- -- -- Slight Chance Slight Chance Chance Chance Chance Chance Slight Chance Chance Chance Slight Chance -- -- Slight Chance -- -- Slight Chance Chance -- -- Chance Likely Slight Chance
Thunder Storm -- -- -- -- -- -- -- -- -- -- -- -- -- -- -- -- -- -- -- -- -- -- -- -- -- Slight Chance Slight Chance Chance Chance Chance Chance Slight Chance Chance Chance Slight Chance -- -- Slight Chance -- -- Slight Chance Chance -- -- Chance Likely Slight Chance
WIND CHILL -- -- -- -- -- -- -- -- -- -- -- -- -- -- -- -- -- -- -- -- -- -- -- -- -- -- -- -- -- -- -- -- -- -- -- -- -- -- -- -- -- -- -- -- -- -- --
SPRAY COND
DRY COND
LIVESTOCK HEATSTRESS 73.56 70.57 69.46 68.15 65.74 64.22 64.25 62.54 62.68 60.87 60.92 60.92 64.66 66.41 70.26 73.60 75.87 76.61 77.94 77.80 77.51 77.65 75.75 71.74 68.95 66.55 67.65 75.78 79.09 78.23 76.85 69.20 69.38 78.21 76.11 69.57 69.38 78.95 76.85 69.38 69.20 78.08 76.00 69.20 69.38 78.61 76.33

Click on individual weather variable above in left-hand column (ie., TEMP, RH, QPF 12HR) to view state forecast maps






NWS 48 Hr. Forecast Maps,

Regional Hourly Observations For CARROLL County, Kentucky
Issued at 400 AM EDT THU MAY 24 2018
NORTHEAST KENTUCKY
  
CITY           SKY/WX    TMP DP  RH WIND       PRES   REMARKS
LEXINGTON      FAIR      65  56  72 E8        30.16S                  
COVINGTON      FAIR      63  56  78 E5        30.17S                  
FRANKFORT      FAIR      64  56  75 NE5       30.15S                  


Current NOWCAST not available:
Nowcasts are not issued routinely during fair weather. Only when
precipitation or other significant weather is occuring in this county will these
forecasts be issued. Currently, there is no short term forecast in effect.


Fire Weather Forecast For CARROLL County, KY
Provided by the National Weather Service:

Issued at: Thu May 24 04:34:12 EDT 2018

CLOUD COVER                     Clear       MClear       MClear
PRECIP TYPE                      None         None         None
CHANCE PRECIP (%)                   0            0            0
TEMP (24H TREND)              85 (+3)      60 (+1)           86
RH % (24H TREND)              41 (-7)      93 (-1)           47
20FTWND-AM(MPH)               Lgt/Var                   Lgt/Var
20FTWND-PM(MPH)                  E  5      Lgt/Var      Lgt/Var
PRECIP AMOUNT                    0.00         0.00         0.00
PRECIP DURATION                                                
MIXING HGT(FT-AGL)               5380                      7380
TRANSPORT WND (MPH)              E  9                     SW 10
LAL                                 1            1            1
HAINES INDEX                        5            5            4

REMARKS...None.

.FORECAST FOR DAYS 3 THROUGH 7...
.FRIDAY NIGHT...Partly cloudy. Lows in the upper 60s. South winds around
5 mph. 
.SATURDAY...Partly sunny with a chance of showers and thunderstorms. Highs
in the mid 80s. Southwest winds around 5 mph. 
.SUNDAY...Mostly cloudy. A chance of showers and thunderstorms. Lows in
the upper 60s. Highs in the upper 80s. South winds around 5 mph. 
.MONDAY...Mostly cloudy. A chance of showers and thunderstorms. Lows in
the upper 60s. Highs in the upper 80s. East winds around 5 mph. 
.TUESDAY...Mostly cloudy. Lows in the upper 60s. Highs in the upper 80s.
Northeast winds around 5 mph. 
.WEDNESDAY...Mostly cloudy with a chance of showers and thunderstorms.
Lows in the upper 60s. Highs in the mid 80s. East winds around 5 mph. 

SPC's Fire Weather Web Tool (Excellent!), SPC's Fire Weather Outlooks, NWS Fire Weather WEB, Fire Danger Class Map,
Keetch-Byram Drought Index, ROMAN Web, Haines Index ,
WFAS's 10-hr Dead Fuel Moist., WFAS's 100-hr Dead Fuel Moist., Probablity of Ignition, Visual blackness Map, Palmer Drought Index, HPC's Rainfall Forecast Maps


Hazardous Weather Outlook For CARROLL County, Kentucky
410 AM EDT Thu May 24 2018

 DAY ONE  Today and Tonight.

No hazardous weather is expected at this time.

 DAYS TWO THROUGH SEVEN  Friday through Wednesday.

The probability for widespread hazardous weather is low.

 SPOTTER INFORMATION STATEMENT  

Spotter activation is not expected at this time.

Latest CARROLL County, Kentucky Watches, Warnings and Advisories.
Additional Drought Info.: UKAWC Drought Page, Kentucky Drought Watch


7-Day Forecast For CARROLL County, KY

TODAY
Sunny. Highs in the mid 80s. Northeast winds around 5 mph.

TONIGHT
Clear. Lows around 60. East winds around 5 mph.

FRIDAY
Mostly sunny. Highs in the mid 80s. Southeast winds around 5 mph, becoming southwest in the afternoon.

FRIDAY NIGHT
Partly cloudy. A slight chance of showers and thunderstorms after midnight. Muggy. Lows in the upper 60s. South winds around 5 mph. Chance of rain 20 percent.

SATURDAY
Partly cloudy with a chance of showers and thunderstorms. Humid with highs in the mid 80s. Southwest winds around 5 mph. Chance of rain 50 percent.

SATURDAY NIGHT
Partly cloudy with a chance of showers and thunderstorms. Unseasonably warm with lows in the upper 60s. Chance of rain 40 percent.

SUNDAY
Partly cloudy with a chance of showers and thunderstorms. Highs in the upper 80s. Chance of rain 40 percent.

SUNDAY NIGHT
Partly cloudy. A chance of showers and thunderstorms in the evening. Unseasonably warm with lows in the upper 60s. Chance of rain 30 percent.

MEMORIAL DAY
Partly cloudy. Highs in the upper 80s.

MONDAY NIGHT
Partly cloudy. Unseasonably warm with lows in the upper 60s.

TUESDAY
Partly cloudy. Highs in the upper 80s.

TUESDAY NIGHT
Partly cloudy. Unseasonably warm with lows in the upper 60s.

WEDNESDAY
Mostly cloudy with a chance of showers and thunderstorms. Highs in the mid 80s. Chance of rain 40 percent.

Ag Weather Center, Department of Biosystems & Agricultural Engineering, University of Kentucky